| time (UTC) | temp C | wind direction | speed KPH | gust KPH | rain 1hr cm | rain 24hr cm | rain mn cm | humidity % | barometer mb |
| 20260906103717 | 22 | 150 | 4.8 | 11.3 | 0.00 | 0.20 | 0.00 | 94 | 1014.3 |
| 20260906103223 | 22 | 109 | 4.8 | 12.9 | 0.00 | 0.20 | 0.00 | 94 | 1014.2 |
| 20260906102729 | 22 | 122 | 4.8 | 16.1 | 0.00 | 0.20 | 0.00 | 94 | 1014.2 |
| 20260906102215 | 22 | 109 | 11.3 | 16.1 | 0.00 | 0.20 | 0.00 | 94 | 1014.2 |
| 20260906101722 | 22 | 166 | 6.4 | 12.9 | 0.00 | 0.20 | 0.00 | 94 | 1014.1 |
| 20260906101228 | 22 | 121 | 8.0 | 12.9 | 0.00 | 0.20 | 0.00 | 94 | 1014.1 |
| 20260906100735 | 22 | 74 | 4.8 | 11.3 | 0.00 | 0.20 | 0.00 | 94 | 1014.1 |
| 20260906100239 | 22 | 119 | 3.2 | 16.1 | 0.00 | 0.20 | 0.00 | 94 | 1014.0 |
| 20260906095721 | 22 | 108 | 6.4 | 16.1 | 0.00 | 0.20 | 0.00 | 94 | 1013.8 |
| 20260906095223 | 22 | 146 | 4.8 | 11.3 | 0.00 | 0.20 | 0.00 | 94 | 1013.7 |
| 20260906094727 | 22 | 88 | 1.6 | 11.3 | 0.00 | 0.20 | 0.00 | 94 | 1013.6 |
| 20260906094253 | 22 | 134 | 6.4 | 11.3 | 0.00 | 0.20 | 0.00 | 94 | 1013.6 |
| 20260906093716 | 22 | 142 | 3.2 | 11.3 | 0.00 | 0.20 | 0.00 | 94 | 1013.5 |
| 20260906093221 | 22 | 130 | 4.8 | 12.9 | 0.00 | 0.20 | 0.00 | 94 | 1013.6 |
| 20260906092745 | 22 | 142 | 3.2 | 12.9 | 0.00 | 0.20 | 0.00 | 93 | 1013.5 |
| 20260906092249 | 22 | 105 | 1.6 | 9.7 | 0.00 | 0.20 | 0.00 | 93 | 1013.5 |
| 20260906091732 | 22 | 117 | 1.6 | 6.4 | 0.00 | 0.20 | 0.00 | 93 | 1013.4 |
| 20260906091236 | 22 | 134 | 3.2 | 8.0 | 0.00 | 0.20 | 0.00 | 93 | 1013.5 |
| 20260906090739 | 22 | 88 | 3.2 | 8.0 | 0.00 | 0.20 | 0.00 | 93 | 1013.4 |
| 20260906090242 | 22 | 138 | 1.6 | 9.7 | 0.00 | 0.20 | 0.00 | 93 | 1013.6 |
| 20260906085726 | 22 | 144 | 0.0 | 9.7 | 0.00 | 0.20 | 0.00 | 93 | 1013.6 |
| 20260906085229 | 22 | 135 | 3.2 | 9.7 | 0.00 | 0.20 | 0.00 | 93 | 1013.4 |
| 20260906084713 | 22 | 69 | 0.0 | 11.3 | 0.00 | 0.20 | 0.00 | 93 | 1013.4 |
| 20260906084240 | 22 | 119 | 3.2 | 11.3 | 0.00 | 0.20 | 0.00 | 93 | 1013.4 |
| 20260906083724 | 22 | 142 | 3.2 | 6.4 | 0.00 | 0.20 | 0.00 | 93 | 1013.4 |
| 20260906083250 | 22 | 123 | 3.2 | 6.4 | 0.00 | 0.20 | 0.00 | 93 | 1013.3 |
| 20260906082736 | 22 | 134 | 1.6 | 6.4 | 0.00 | 0.20 | 0.00 | 93 | 1013.2 |
| 20260906082238 | 23 | 103 | 1.6 | 6.4 | 0.00 | 0.20 | 0.00 | 93 | 1013.2 |
| 20260906081744 | 23 | 101 | 1.6 | 6.4 | 0.00 | 0.20 | 0.00 | 93 | 1013.2 |
| 20260906081230 | 23 | 83 | 1.6 | 8.0 | 0.00 | 0.20 | 0.00 | 93 | 1013.2 |
| 20260906080716 | 23 | 65 | 3.2 | 9.7 | 0.00 | 0.20 | 0.00 | 93 | 1013.1 |
| 20260906080222 | 23 | 86 | 0.0 | 9.7 | 0.00 | 0.20 | 0.00 | 93 | 1013.0 |
| 20260906075728 | 23 | 82 | 3.2 | 9.7 | 0.00 | 0.20 | 0.00 | 93 | 1013.1 |
| 20260906075219 | 23 | 153 | 3.2 | 8.0 | 0.00 | 0.20 | 0.00 | 92 | 1013.2 |
| 20260906074725 | 23 | 159 | 1.6 | 8.0 | 0.00 | 0.20 | 0.00 | 92 | 1013.1 |
| 20260906074231 | 23 | 140 | 4.8 | 9.7 | 0.00 | 0.20 | 0.00 | 92 | 1013.1 |
| 20260906073717 | 23 | 157 | 3.2 | 8.0 | 0.00 | 0.20 | 0.00 | 92 | 1013.2 |
| 20260906073243 | 23 | 148 | 3.2 | 8.0 | 0.00 | 0.20 | 0.00 | 92 | 1013.1 |
| 20260906072729 | 23 | 115 | 3.2 | 6.4 | 0.00 | 0.20 | 0.00 | 92 | 1013.3 |
| 20260906072215 | 23 | 100 | 1.6 | 6.4 | 0.00 | 0.20 | 0.00 | 92 | 1013.2 |
| 20260906071722 | 23 | 99 | 1.6 | 6.4 | 0.00 | 0.20 | 0.00 | 92 | 1013.2 |
| 20260906071228 | 23 | 140 | 0.0 | 8.0 | 0.00 | 0.20 | 0.00 | 92 | 1013.3 |
| 20260906070715 | 23 | 141 | 1.6 | 8.0 | 0.00 | 0.20 | 0.00 | 92 | 1013.4 |
| 20260906070242 | 23 | 128 | 0.0 | 3.2 | 0.00 | 0.20 | 0.00 | 92 | 1013.3 |
| 20260906065748 | 23 | 128 | 1.6 | 3.2 | 0.00 | 0.20 | 0.00 | 92 | 1013.4 |
| 20260906065249 | 23 | 128 | 1.6 | 4.8 | 0.00 | 0.20 | 0.00 | 92 | 1013.4 |
| 20260906064718 | 23 | 128 | 0.0 | 8.0 | 0.00 | 0.20 | 0.00 | 92 | 1013.4 |
| 20260906064224 | 23 | 128 | 1.6 | 8.0 | 0.00 | 0.20 | 0.00 | 92 | 1013.5 |
| 20260906063731 | 23 | 61 | 0.0 | 0.0 | 0.00 | 0.20 | 0.00 | 92 | 1013.6 |
| 20260906063217 | 23 | 61 | 0.0 | 0.0 | 0.00 | 0.20 | 0.00 | 92 | 1013.5 |
| 20260906062724 | 24 | 61 | 0.0 | 0.0 | 0.00 | 0.20 | 0.00 | 92 | 1013.5 |
| 20260906062230 | 24 | 62 | 0.0 | 0.0 | 0.00 | 0.20 | 0.00 | 92 | 1013.6 |
| 20260906061716 | 24 | 62 | 0.0 | 0.0 | 0.00 | 0.20 | 0.00 | 92 | 1013.5 |
| 20260906061242 | 24 | 61 | 0.0 | 0.0 | 0.00 | 0.20 | 0.00 | 92 | 1013.5 |
| 20260906060742 | 24 | 61 | 0.0 | 0.0 | 0.00 | 0.20 | 0.00 | 92 | 1013.5 |
| 20260906060243 | 24 | 61 | 0.0 | 0.0 | 0.00 | 0.20 | 0.00 | 91 | 1013.6 |
| 20260906055721 | 24 | 61 | 0.0 | 0.0 | 0.00 | 0.20 | 0.00 | 91 | 1013.7 |
| 20260906055227 | 24 | 61 | 0.0 | 0.0 | 0.00 | 0.20 | 0.00 | 91 | 1013.7 |
| 20260906054753 | 24 | 61 | 0.0 | 0.0 | 0.00 | 0.20 | 0.00 | 91 | 1013.7 |
| 20260906054218 | 24 | 61 | 0.0 | 0.0 | 0.00 | 0.20 | 0.00 | 91 | 1013.6 |
| 20260906053725 | 24 | 61 | 0.0 | 0.0 | 0.00 | 0.20 | 0.00 | 91 | 1013.6 |
| 20260906053214 | 24 | 61 | 0.0 | 0.0 | 0.00 | 0.20 | 0.00 | 91 | 1013.7 |
| 20260906052721 | 25 | 61 | 0.0 | 1.6 | 0.00 | 0.20 | 0.00 | 91 | 1013.5 |
| 20260906052242 | 25 | 61 | 0.0 | 3.2 | 0.00 | 0.20 | 0.00 | 91 | 1013.5 |
| 20260906051747 | 25 | 61 | 0.0 | 4.8 | 0.00 | 0.20 | 0.00 | 91 | 1013.5 |
| 20260906051249 | 25 | 61 | 0.0 | 4.8 | 0.00 | 0.20 | 0.00 | 91 | 1013.5 |
| 20260906050750 | 25 | 63 | 1.6 | 4.8 | 0.00 | 0.20 | 0.00 | 92 | 1013.5 |
| 20260906050230 | 25 | 62 | 1.6 | 8.0 | 0.00 | 0.20 | 0.00 | 92 | 1013.4 |
| 20260906045732 | 25 | 61 | 3.2 | 8.0 | 0.00 | 0.20 | 0.00 | 92 | 1013.3 |
| 20260906045212 | 25 | 30 | 1.6 | 6.4 | 0.00 | 0.20 | 0.00 | 92 | 1013.3 |
| 20260906044715 | 25 | 67 | 3.2 | 4.8 | 0.00 | 0.20 | 0.00 | 92 | 1013.2 |
| 20260906044216 | 25 | 55 | 1.6 | 4.8 | 0.00 | 0.20 | 0.00 | 92 | 1013.1 |
| 20260906043718 | 25 | 80 | 0.0 | 8.0 | 0.00 | 0.20 | 0.00 | 92 | 1013.0 |
| 20260906043218 | 25 | 81 | 1.6 | 8.0 | 0.00 | 0.20 | 0.00 | 92 | 1012.9 |
| 20260906042720 | 25 | 121 | 3.2 | 6.4 | 0.00 | 0.20 | 0.00 | 92 | 1012.8 |
| 20260906042242 | 25 | 67 | 1.6 | 6.4 | 0.00 | 0.20 | 0.00 | 92 | 1012.7 |
| 20260906041723 | 25 | 130 | 1.6 | 12.9 | 0.00 | 0.20 | 0.00 | 92 | 1012.9 |
| 20260906041226 | 25 | 114 | 3.2 | 12.9 | 0.00 | 0.20 | 0.00 | 92 | 1012.7 |
| 20260906040730 | 25 | 92 | 3.2 | 14.5 | 0.00 | 0.20 | 0.00 | 92 | 1012.8 |
| 20260906040233 | 25 | 92 | 3.2 | 14.5 | 0.00 | 0.20 | 0.00 | 92 | 1012.7 |
| 20260906035716 | 25 | 153 | 3.2 | 9.7 | 0.00 | 0.20 | 0.20 | 92 | 1012.7 |
| 20260906035241 | 25 | 138 | 4.8 | 11.3 | 0.00 | 0.20 | 0.20 | 92 | 1012.8 |
| 20260906034744 | 25 | 86 | 3.2 | 14.5 | 0.00 | 0.20 | 0.20 | 92 | 1012.8 |
| 20260906034246 | 25 | 87 | 3.2 | 14.5 | 0.00 | 0.20 | 0.20 | 92 | 1012.8 |
| 20260906033730 | 25 | 119 | 3.2 | 9.7 | 0.00 | 0.20 | 0.20 | 92 | 1012.8 |
| 20260906033235 | 25 | 100 | 0.0 | 6.4 | 0.00 | 0.20 | 0.20 | 92 | 1012.6 |
| 20260906032720 | 25 | 109 | 1.6 | 9.7 | 0.00 | 0.20 | 0.20 | 91 | 1012.7 |
| 20260906032245 | 25 | 109 | 1.6 | 9.7 | 0.00 | 0.20 | 0.20 | 91 | 1012.8 |
| 20260906031730 | 25 | 108 | 0.0 | 6.4 | 0.00 | 0.20 | 0.20 | 91 | 1012.7 |
| 20260906031216 | 25 | 108 | 3.2 | 6.4 | 0.00 | 0.20 | 0.20 | 91 | 1012.7 |
| 20260906030743 | 25 | 78 | 3.2 | 6.4 | 0.00 | 0.20 | 0.20 | 91 | 1012.7 |
| 20260906030229 | 25 | 71 | 1.6 | 6.4 | 0.00 | 0.20 | 0.20 | 90 | 1012.6 |
| 20260906025714 | 25 | 107 | 1.6 | 4.8 | 0.00 | 0.20 | 0.20 | 90 | 1012.5 |
| 20260906025241 | 25 | 149 | 0.0 | 6.4 | 0.00 | 0.20 | 0.20 | 90 | 1012.5 |
| 20260906024727 | 25 | 80 | 1.6 | 6.4 | 0.00 | 0.20 | 0.20 | 89 | 1012.5 |
| 20260906024213 | 25 | 123 | 1.6 | 4.8 | 0.00 | 0.20 | 0.20 | 89 | 1012.5 |
| 20260906023735 | 25 | 126 | 0.0 | 6.4 | 0.00 | 0.20 | 0.20 | 89 | 1012.6 |
| 20260906023219 | 25 | 126 | 1.6 | 6.4 | 0.00 | 0.20 | 0.20 | 88 | 1012.6 |
| 20260906022720 | 25 | 137 | 0.0 | 3.2 | 0.00 | 0.20 | 0.20 | 87 | 1012.6 |
| 20260906022224 | 25 | 137 | 1.6 | 4.8 | 0.00 | 0.20 | 0.20 | 87 | 1012.5 |
| 20260906021724 | 25 | 150 | 1.6 | 4.8 | 0.03 | 0.20 | 0.20 | 87 | 1012.4 |
| 20260906021229 | 25 | 153 | 0.0 | 4.8 | 0.10 | 0.20 | 0.20 | 86 | 1012.3 |
| 20260906020753 | 26 | 153 | 1.6 | 8.0 | 0.20 | 0.20 | 0.20 | 86 | 1012.3 |
| 20260906020235 | 26 | 153 | 3.2 | 8.0 | 0.20 | 0.20 | 0.20 | 85 | 1012.2 |
| 20260906015718 | 26 | 88 | 1.6 | 6.4 | 0.20 | 0.20 | 0.20 | 84 | 1012.2 |
| 20260906015243 | 26 | 21 | 0.0 | 3.2 | 0.20 | 0.20 | 0.20 | 83 | 1012.1 |
| 20260906014726 | 27 | 20 | 1.6 | 3.2 | 0.20 | 0.20 | 0.20 | 83 | 1012.0 |
| 20260906014231 | 27 | 20 | 1.6 | 3.2 | 0.20 | 0.20 | 0.20 | 82 | 1011.8 |
| 20260906013734 | 27 | 20 | 0.0 | 3.2 | 0.20 | 0.20 | 0.20 | 81 | 1011.8 |
| 20260906013218 | 27 | 20 | 0.0 | 6.4 | 0.20 | 0.20 | 0.20 | 81 | 1011.7 |
| 20260906012742 | 27 | 326 | 3.2 | 9.7 | 0.20 | 0.20 | 0.20 | 80 | 1011.7 |
| 20260906012226 | 28 | 54 | 1.6 | 11.3 | 0.20 | 0.20 | 0.20 | 80 | 1011.7 |
| 20260906011731 | 28 | 62 | 3.2 | 19.3 | 0.18 | 0.18 | 0.18 | 80 | 1011.6 |
| 20260906011214 | 29 | 214 | 9.7 | 19.3 | 0.08 | 0.08 | 0.08 | 81 | 1011.8 |
| 20260906010739 | 29 | 52 | 1.6 | 4.8 | 0.00 | 0.00 | 0.00 | 79 | 1011.7 |
| 20260906010243 | 30 | 51 | 0.0 | 0.0 | 0.00 | 0.00 | 0.00 | 79 | 1011.5 |
| 20260906005726 | 30 | 51 | 0.0 | 0.0 | 0.00 | 0.00 | 0.00 | 77 | 1011.6 |
| 20260906005230 | 30 | 51 | 0.0 | 0.0 | 0.00 | 0.00 | 0.00 | 77 | 1011.3 |
| 20260906004715 | 30 | 52 | 0.0 | 0.0 | 0.00 | 0.00 | 0.00 | 77 | 1011.4 |
| 20260906004238 | 31 | 52 | 0.0 | 0.0 | 0.00 | 0.00 | 0.00 | 77 | 1011.4 |
| 20260906003721 | 31 | 52 | 0.0 | 0.0 | 0.00 | 0.00 | 0.00 | 76 | 1011.4 |
| 20260906003225 | 31 | 52 | 0.0 | 0.0 | 0.00 | 0.00 | 0.00 | 75 | 1011.6 |
| 20260906002730 | 31 | 52 | 0.0 | 0.0 | 0.00 | 0.00 | 0.00 | 73 | 1011.6 |
| 20260906002233 | 32 | 52 | 0.0 | 0.0 | 0.00 | 0.00 | 0.00 | 72 | 1011.6 |
| 20260906001717 | 32 | 51 | 0.0 | 0.0 | 0.00 | 0.00 | 0.00 | 71 | 1011.5 |
| 20260906001241 | 32 | 52 | 0.0 | 0.0 | 0.00 | 0.00 | 0.00 | 70 | 1011.6 |
| 20260906000724 | 32 | 52 | 0.0 | 0.0 | 0.00 | 0.00 | 0.00 | 69 | 1011.6 |
| 20260906000244 | 32 | 52 | 0.0 | 0.0 | 0.00 | 0.00 | 0.00 | 69 | 1011.6 |
| 20260905235728 | 33 | 52 | 0.0 | 0.0 | 0.00 | 0.00 | 0.00 | 68 | 1011.7 |
| 20260905235213 | 33 | 52 | 0.0 | 3.2 | 0.00 | 0.00 | 0.00 | 67 | 1011.8 |
| 20260905234718 | 33 | 52 | 0.0 | 3.2 | 0.00 | 0.00 | 0.00 | 67 | 1011.7 |
| 20260905234221 | 33 | 52 | 1.6 | 3.2 | 0.00 | 0.00 | 0.00 | 66 | 1011.7 |
| 20260905233726 | 33 | 51 | 1.6 | 3.2 | 0.00 | 0.00 | 0.00 | 64 | 1011.7 |
| 20260905233230 | 34 | 51 | 1.6 | 6.4 | 0.00 | 0.00 | 0.00 | 64 | 1011.7 |
| 20260905232735 | 34 | 51 | 3.2 | 6.4 | 0.00 | 0.00 | 0.00 | 64 | 1011.6 |
| 20260905232253 | 34 | 51 | 1.6 | 8.0 | 0.00 | 0.00 | 0.00 | 62 | 1011.6 |
| 20260905231716 | 35 | 50 | 1.6 | 9.7 | 0.00 | 0.00 | 0.00 | 61 | 1011.5 |
| 20260905231220 | 35 | 36 | 4.8 | 9.7 | 0.00 | 0.00 | 0.00 | 61 | 1011.6 |
| 20260905230724 | 35 | 116 | 1.6 | 6.4 | 0.00 | 0.00 | 0.00 | 61 | 1011.4 |
| 20260905230213 | 35 | 116 | 1.6 | 6.4 | 0.00 | 0.00 | 0.00 | 60 | 1011.4 |
| 20260905225717 | 35 | 117 | 3.2 | 6.4 | 0.00 | 0.00 | 0.00 | 60 | 1011.3 |
| 20260905225220 | 35 | 59 | 3.2 | 9.7 | 0.00 | 0.00 | 0.00 | 59 | 1011.3 |
| 20260905224742 | 35 | 54 | 1.6 | 9.7 | 0.00 | 0.00 | 0.00 | 60 | 1011.3 |
| 20260905224246 | 35 | 105 | 3.2 | 8.0 | 0.00 | 0.00 | 0.00 | 60 | 1011.3 |
| 20260905223729 | 35 | 45 | 3.2 | 8.0 | 0.00 | 0.00 | 0.00 | 60 | 1011.1 |
| 20260905223234 | 35 | 98 | 1.6 | 9.7 | 0.00 | 0.00 | 0.00 | 60 | 1011.2 |
| 20260905222739 | 35 | 56 | 4.8 | 11.3 | 0.00 | 0.00 | 0.00 | 61 | 1011.2 |
| 20260905222245 | 35 | 78 | 3.2 | 9.7 | 0.00 | 0.00 | 0.00 | 59 | 1011.2 |
| 20260905221749 | 36 | 97 | 3.2 | 8.0 | 0.00 | 0.00 | 0.00 | 59 | 1011.1 |
| 20260905221235 | 35 | 127 | 3.2 | 17.7 | 0.00 | 0.00 | 0.00 | 59 | 1011.1 |
| 20260905220740 | 35 | 57 | 4.8 | 17.7 | 0.00 | 0.00 | 0.00 | 59 | 1010.9 |
| 20260905220226 | 35 | 92 | 3.2 | 17.7 | 0.00 | 0.00 | 0.00 | 60 | 1011.0 |
| 20260905215731 | 36 | 338 | 4.8 | 17.7 | 0.00 | 0.00 | 0.00 | 59 | 1011.0 |
| 20260905215237 | 36 | 87 | 4.8 | 11.3 | 0.00 | 0.00 | 0.00 | 58 | 1010.9 |
| 20260905214743 | 36 | 62 | 3.2 | 8.0 | 0.00 | 0.00 | 0.00 | 58 | 1010.9 |
| 20260905214248 | 36 | 148 | 3.2 | 9.7 | 0.00 | 0.00 | 0.00 | 58 | 1011.1 |
| 20260905213713 | 36 | 95 | 6.4 | 9.7 | 0.00 | 0.00 | 0.00 | 56 | 1011.2 |
| 20260905213218 | 36 | 68 | 4.8 | 14.5 | 0.00 | 0.00 | 0.00 | 56 | 1011.2 |
| 20260905212725 | 36 | 55 | 3.2 | 16.1 | 0.00 | 0.00 | 0.00 | 55 | 1011.2 |
| 20260905212231 | 36 | 34 | 6.4 | 17.7 | 0.00 | 0.00 | 0.00 | 54 | 1010.9 |
| 20260905211738 | 36 | 301 | 9.7 | 17.7 | 0.00 | 0.00 | 0.00 | 53 | 1010.9 |
| 20260905211242 | 36 | 316 | 9.7 | 14.5 | 0.00 | 0.00 | 0.00 | 53 | 1010.9 |
| 20260905210747 | 36 | 342 | 6.4 | 19.3 | 0.00 | 0.00 | 0.00 | 54 | 1011.1 |
| 20260905210253 | 36 | 355 | 11.3 | 19.3 | 0.00 | 0.00 | 0.00 | 52 | 1011.3 |
| 20260905205738 | 36 | 330 | 11.3 | 17.7 | 0.00 | 0.00 | 0.00 | 52 | 1011.3 |
| 20260905205244 | 36 | 342 | 4.8 | 16.1 | 0.00 | 0.00 | 0.00 | 53 | 1011.3 |
| 20260905204730 | 36 | 306 | 9.7 | 16.1 | 0.00 | 0.00 | 0.00 | 52 | 1011.3 |
| 20260905204216 | 36 | 24 | 9.7 | 16.1 | 0.00 | 0.00 | 0.00 | 52 | 1011.4 |
| 20260905203721 | 36 | 12 | 4.8 | 20.9 | 0.00 | 0.00 | 0.00 | 52 | 1011.4 |
| 20260905203227 | 36 | 327 | 8.0 | 22.5 | 0.00 | 0.00 | 0.00 | 53 | 1011.6 |
| 20260905202713 | 36 | 340 | 9.7 | 22.5 | 0.00 | 0.00 | 0.00 | 52 | 1011.5 |
| 20260905202240 | 36 | 360 | 6.4 | 17.7 | 0.00 | 0.00 | 0.00 | 54 | 1011.6 |
| 20260905201724 | 36 | 333 | 11.3 | 17.7 | 0.00 | 0.00 | 0.00 | 51 | 1011.7 |
| 20260905201230 | 37 | 332 | 9.7 | 16.1 | 0.00 | 0.00 | 0.00 | 52 | 1011.8 |
| 20260905200736 | 37 | 46 | 4.8 | 9.7 | 0.00 | 0.00 | 0.00 | 52 | 1011.8 |
| 20260905200222 | 37 | 32 | 6.4 | 9.7 | 0.00 | 0.00 | 0.00 | 53 | 1011.8 |
| 20260905195727 | 37 | 318 | 3.2 | 6.4 | 0.00 | 0.00 | 0.00 | 54 | 1011.8 |
| 20260905195234 | 36 | 220 | 3.2 | 11.3 | 0.00 | 0.00 | 0.00 | 54 | 1011.8 |
| 20260905194739 | 36 | 270 | 4.8 | 11.3 | 0.00 | 0.00 | 0.00 | 53 | 1011.8 |
| 20260905194222 | 36 | 231 | 4.8 | 8.0 | 0.00 | 0.00 | 0.00 | 54 | 1011.8 |
| 20260905193728 | 36 | 292 | 4.8 | 8.0 | 0.00 | 0.00 | 0.00 | 55 | 1012.1 |
| 20260905193214 | 36 | 299 | 3.2 | 6.4 | 0.00 | 0.00 | 0.00 | 55 | 1012.0 |
| 20260905192720 | 36 | 333 | 3.2 | 12.9 | 0.00 | 0.00 | 0.00 | 54 | 1012.1 |
| 20260905192226 | 36 | 316 | 4.8 | 14.5 | 0.00 | 0.00 | 0.00 | 55 | 1012.2 |
| 20260905191732 | 36 | 44 | 8.0 | 14.5 | 0.00 | 0.00 | 0.00 | 55 | 1012.3 |
| 20260905191238 | 36 | 334 | 4.8 | 8.0 | 0.00 | 0.00 | 0.00 | 56 | 1012.4 |
| 20260905190744 | 36 | 346 | 1.6 | 8.0 | 0.00 | 0.00 | 0.00 | 55 | 1012.4 |
| 20260905190250 | 36 | 346 | 3.2 | 16.1 | 0.00 | 0.00 | 0.00 | 57 | 1012.3 |
| 20260905185715 | 36 | 288 | 8.0 | 16.1 | 0.00 | 0.00 | 0.00 | 55 | 1012.5 |
| 20260905185219 | 36 | 338 | 4.8 | 12.9 | 0.00 | 0.00 | 0.00 | 55 | 1012.6 |
| 20260905184721 | 36 | 30 | 4.8 | 8.0 | 0.00 | 0.00 | 0.00 | 58 | 1012.6 |
| 20260905184243 | 35 | 59 | 3.2 | 8.0 | 0.00 | 0.00 | 0.00 | 59 | 1012.8 |
| 20260905183727 | 35 | 346 | 4.8 | 9.7 | 0.00 | 0.00 | 0.00 | 59 | 1012.9 |
| 20260905183249 | 35 | 329 | 6.4 | 9.7 | 0.00 | 0.00 | 0.00 | 57 | 1013.0 |
| 20260905182747 | 35 | 309 | 3.2 | 12.9 | 0.00 | 0.00 | 0.00 | 58 | 1013.0 |
| 20260905182215 | 35 | 263 | 3.2 | 6.4 | 0.00 | 0.00 | 0.00 | 60 | 1012.9 |
| 20260905181718 | 35 | 208 | 1.6 | 6.4 | 0.00 | 0.00 | 0.00 | 60 | 1013.0 |
| 20260905181222 | 34 | 45 | 3.2 | 6.4 | 0.00 | 0.00 | 0.00 | 60 | 1013.1 |
| 20260905180742 | 34 | 348 | 4.8 | 6.4 | 0.00 | 0.00 | 0.00 | 62 | 1013.1 |
| 20260905180225 | 34 | 15 | 4.8 | 9.7 | 0.00 | 0.00 | 0.00 | 60 | 1013.1 |
| 20260905175749 | 34 | 275 | 4.8 | 11.3 | 0.00 | 0.00 | 0.00 | 60 | 1013.1 |
| 20260905175232 | 33 | 223 | 3.2 | 11.3 | 0.00 | 0.00 | 0.00 | 60 | 1013.3 |
| 20260905174716 | 33 | 346 | 4.8 | 9.7 | 0.00 | 0.00 | 0.00 | 61 | 1013.3 |
| 20260905174220 | 33 | 132 | 4.8 | 9.7 | 0.00 | 0.00 | 0.00 | 61 | 1013.5 |
| 20260905173744 | 33 | 242 | 4.8 | 9.7 | 0.00 | 0.00 | 0.00 | 61 | 1013.5 |
| 20260905173228 | 33 | 200 | 4.8 | 11.3 | 0.00 | 0.00 | 0.00 | 61 | 1013.4 |
| 20260905172731 | 33 | 225 | 4.8 | 11.3 | 0.00 | 0.00 | 0.00 | 61 | 1013.5 |
| 20260905172235 | 33 | 266 | 4.8 | 14.5 | 0.00 | 0.00 | 0.00 | 60 | 1013.5 |
| 20260905171738 | 33 | 296 | 8.0 | 12.9 | 0.00 | 0.00 | 0.00 | 61 | 1013.6 |
| 20260905171221 | 33 | 267 | 6.4 | 9.7 | 0.00 | 0.00 | 0.00 | 61 | 1013.9 |
| 20260905170726 | 33 | 144 | 3.2 | 9.7 | 0.00 | 0.00 | 0.00 | 62 | 1014.0 |
| 20260905170230 | 33 | 183 | 6.4 | 9.7 | 0.00 | 0.00 | 0.00 | 61 | 1014.1 |
| 20260905165715 | 33 | 242 | 4.8 | 9.7 | 0.00 | 0.00 | 0.00 | 61 | 1014.3 |
| 20260905165220 | 33 | 190 | 4.8 | 11.3 | 0.00 | 0.00 | 0.00 | 62 | 1014.4 |
| 20260905164726 | 32 | 264 | 3.2 | 11.3 | 0.00 | 0.00 | 0.00 | 63 | 1014.4 |
| 20260905164232 | 32 | 229 | 3.2 | 11.3 | 0.00 | 0.00 | 0.00 | 64 | 1014.4 |
| 20260905163718 | 32 | 192 | 3.2 | 14.5 | 0.00 | 0.00 | 0.00 | 64 | 1014.4 |
| 20260905163224 | 32 | 173 | 3.2 | 14.5 | 0.00 | 0.00 | 0.00 | 65 | 1014.3 |
| 20260905162749 | 32 | 275 | 3.2 | 12.9 | 0.00 | 0.00 | 0.00 | 66 | 1014.2 |
| 20260905162214 | 32 | 144 | 1.6 | 14.5 | 0.00 | 0.00 | 0.00 | 66 | 1014.2 |
| 20260905161721 | 32 | 167 | 8.0 | 16.1 | 0.00 | 0.00 | 0.00 | 65 | 1014.2 |
| 20260905161226 | 31 | 166 | 8.0 | 16.1 | 0.00 | 0.00 | 0.00 | 66 | 1014.2 |
| 20260905160734 | 31 | 171 | 9.7 | 16.1 | 0.00 | 0.00 | 0.00 | 67 | 1014.1 |
| 20260905160218 | 31 | 160 | 3.2 | 12.9 | 0.00 | 0.00 | 0.00 | 67 | 1014.2 |
| 20260905155746 | 31 | 134 | 4.8 | 19.3 | 0.00 | 0.00 | 0.00 | 67 | 1014.2 |
| 20260905155231 | 31 | 215 | 6.4 | 19.3 | 0.00 | 0.00 | 0.00 | 67 | 1014.5 |
| 20260905154716 | 31 | 173 | 8.0 | 20.9 | 0.00 | 0.00 | 0.00 | 69 | 1014.6 |
| 20260905154222 | 31 | 144 | 9.7 | 20.9 | 0.00 | 0.00 | 0.00 | 68 | 1014.7 |
| 20260905153727 | 31 | 163 | 9.7 | 22.5 | 0.00 | 0.00 | 0.00 | 67 | 1014.5 |
| 20260905153235 | 30 | 167 | 9.7 | 25.7 | 0.00 | 0.00 | 0.00 | 69 | 1014.5 |
| 20260905152738 | 30 | 159 | 12.9 | 25.7 | 0.00 | 0.00 | 0.00 | 71 | 1014.4 |
| 20260905152219 | 30 | 127 | 11.3 | 19.3 | 0.00 | 0.00 | 0.00 | 71 | 1014.4 |
| 20260905151720 | 30 | 156 | 12.9 | 22.5 | 0.00 | 0.00 | 0.00 | 70 | 1014.3 |
| 20260905151222 | 30 | 162 | 11.3 | 22.5 | 0.00 | 0.00 | 0.00 | 71 | 1014.5 |
| 20260905150743 | 30 | 139 | 6.4 | 27.4 | 0.00 | 0.00 | 0.00 | 71 | 1014.4 |
| 20260905150224 | 30 | 164 | 12.9 | 27.4 | 0.00 | 0.00 | 0.00 | 71 | 1014.4 |
| 20260905145746 | 29 | 132 | 14.5 | 25.7 | 0.00 | 0.00 | 0.00 | 74 | 1014.5 |
| 20260905145227 | 29 | 115 | 9.7 | 19.3 | 0.00 | 0.00 | 0.00 | 75 | 1014.5 |
| 20260905144729 | 29 | 207 | 6.4 | 29.0 | 0.00 | 0.00 | 0.00 | 75 | 1014.5 |
| 20260905144253 | 29 | 78 | 17.7 | 29.0 | 0.00 | 0.00 | 0.00 | 76 | 1014.5 |
| 20260905143717 | 28 | 141 | 8.0 | 17.7 | 0.00 | 0.00 | 0.00 | 78 | 1014.5 |
| 20260905143241 | 28 | 220 | 8.0 | 17.7 | 0.00 | 0.00 | 0.00 | 79 | 1014.5 |
| 20260905142723 | 28 | 148 | 9.7 | 22.5 | 0.00 | 0.00 | 0.00 | 80 | 1014.5 |
| 20260905142228 | 28 | 171 | 12.9 | 22.5 | 0.00 | 0.00 | 0.00 | 80 | 1014.7 |
| 20260905141752 | 27 | 173 | 11.3 | 25.7 | 0.00 | 0.00 | 0.00 | 82 | 1014.7 |
| 20260905141214 | 27 | 188 | 14.5 | 25.7 | 0.00 | 0.00 | 0.00 | 84 | 1014.7 |
| 20260905140718 | 27 | 150 | 12.9 | 25.7 | 0.00 | 0.00 | 0.00 | 85 | 1014.7 |
| 20260905140223 | 26 | 148 | 14.5 | 29.0 | 0.00 | 0.00 | 0.00 | 87 | 1014.7 |
| 20260905135727 | 26 | 128 | 12.9 | 29.0 | 0.00 | 0.00 | 0.00 | 88 | 1014.7 |
| 20260905135232 | 26 | 148 | 14.5 | 24.1 | 0.00 | 0.00 | 0.00 | 90 | 1014.7 |
| 20260905134717 | 25 | 153 | 11.3 | 22.5 | 0.00 | 0.00 | 0.00 | 93 | 1014.6 |
| 20260905134222 | 25 | 156 | 9.7 | 19.3 | 0.00 | 0.00 | 0.00 | 94 | 1014.8 |
| 20260905133729 | 24 | 172 | 4.8 | 16.1 | 0.00 | 0.00 | 0.00 | 94 | 1014.7 |
| 20260905133234 | 24 | 155 | 8.0 | 16.1 | 0.00 | 0.00 | 0.00 | 94 | 1014.8 |
| 20260905132739 | 24 | 142 | 9.7 | 19.3 | 0.00 | 0.00 | 0.00 | 94 | 1014.8 |
| 20260905132224 | 24 | 161 | 6.4 | 27.4 | 0.00 | 0.00 | 0.00 | 94 | 1014.8 |
| 20260905131730 | 24 | 156 | 11.3 | 14.5 | 0.00 | 0.00 | 0.00 | 94 | 1014.9 |
| 20260905131216 | 24 | 171 | 0.0 | 6.4 | 0.00 | 0.00 | 0.00 | 95 | 1014.5 |
| 20260905130722 | 24 | 236 | 0.0 | 0.0 | 0.00 | 0.00 | 0.00 | 95 | 1014.4 |
| 20260905130250 | 23 | 236 | 0.0 | 0.0 | 0.00 | 0.00 | 0.00 | 94 | 1014.4 |
| 20260905125736 | 23 | 236 | 0.0 | 0.0 | 0.00 | 0.00 | 0.00 | 95 | 1014.2 |
| 20260905125222 | 23 | 236 | 0.0 | 0.0 | 0.00 | 0.00 | 0.00 | 94 | 1014.1 |
| 20260905124747 | 23 | 236 | 0.0 | 0.0 | 0.00 | 0.00 | 0.00 | 94 | 1014.1 |
| 20260905124213 | 23 | 236 | 0.0 | 0.0 | 0.00 | 0.00 | 0.00 | 94 | 1014.1 |
| 20260905123739 | 23 | 236 | 0.0 | 0.0 | 0.00 | 0.00 | 0.00 | 94 | 1014.1 |
| 20260905123245 | 23 | 236 | 0.0 | 0.0 | 0.00 | 0.00 | 0.00 | 94 | 1014.0 |
| 20260905122751 | 23 | 236 | 0.0 | 0.0 | 0.00 | 0.00 | 0.00 | 94 | 1014.0 |
| 20260905122217 | 23 | 236 | 0.0 | 0.0 | 0.00 | 0.00 | 0.00 | 94 | 1014.0 |
| 20260905121743 | 23 | 236 | 0.0 | 0.0 | 0.00 | 0.00 | 0.00 | 94 | 1014.0 |
| 20260905121250 | 23 | 236 | 0.0 | 0.0 | 0.00 | 0.00 | 0.00 | 94 | 1014.0 |
| 20260905120715 | 23 | 236 | 0.0 | 0.0 | 0.00 | 0.00 | 0.00 | 94 | 1014.0 |
| 20260905120221 | 23 | 236 | 0.0 | 0.0 | 0.00 | 0.00 | 0.00 | 94 | 1014.0 |
| 20260905115728 | 23 | 236 | 0.0 | 0.0 | 0.00 | 0.00 | 0.00 | 94 | 1013.8 |
| 20260905115235 | 23 | 236 | 0.0 | 0.0 | 0.00 | 0.00 | 0.00 | 93 | 1013.9 |
| 20260905114721 | 23 | 236 | 0.0 | 0.0 | 0.00 | 0.00 | 0.00 | 93 | 1013.8 |
| 20260905114246 | 23 | 236 | 0.0 | 0.0 | 0.00 | 0.00 | 0.00 | 93 | 1013.9 |
| 20260905113750 | 23 | 236 | 0.0 | 0.0 | 0.00 | 0.00 | 0.00 | 93 | 1013.9 |
| 20260905113231 | 23 | 236 | 0.0 | 0.0 | 0.00 | 0.00 | 0.00 | 93 | 1013.9 |
| 20260905112735 | 23 | 236 | 0.0 | 0.0 | 0.00 | 0.00 | 0.00 | 93 | 1013.7 |
| 20260905112218 | 23 | 236 | 0.0 | 0.0 | 0.00 | 0.00 | 0.00 | 93 | 1013.7 |
| 20260905111742 | 23 | 236 | 0.0 | 0.0 | 0.00 | 0.00 | 0.00 | 93 | 1013.6 |
| 20260905111225 | 23 | 236 | 0.0 | 0.0 | 0.00 | 0.00 | 0.00 | 93 | 1013.6 |
| 20260905110749 | 23 | 236 | 0.0 | 0.0 | 0.00 | 0.00 | 0.00 | 93 | 1013.5 |
| 20260905110232 | 23 | 236 | 0.0 | 0.0 | 0.00 | 0.00 | 0.00 | 93 | 1013.5 |
| 20260905105716 | 23 | 236 | 0.0 | 0.0 | 0.00 | 0.00 | 0.00 | 93 | 1013.5 |
| 20260905105220 | 23 | 236 | 0.0 | 0.0 | 0.00 | 0.00 | 0.00 | 93 | 1013.3 |
| 20260905104724 | 23 | 236 | 0.0 | 0.0 | 0.00 | 0.00 | 0.00 | 93 | 1013.3 |
| 20260905104228 | 23 | 236 | 0.0 | 0.0 | 0.00 | 0.00 | 0.00 | 93 | 1013.4 |